Вернуться в каталог

CZ-6A DEB

АктивенSSO
NORAD 54574·DEBRIS·🇨🇳 China

Запущен Nov 11, 2022 с Taiyuan Satellite Launch Center

Loading…

Ближайшие Пролёты (ближайшие 24 часа)

TLE

СвежийSource: Space-Track

Эпоха: Sep 13, 2026, 08:33 UTC

1 54574U 22151MA  26256.35643727  .00001386  00000-0  32701-3 0  9998
2 54574  98.5550 303.6576 0100906  34.2226 326.5418 14.52847641201806

Отслеживайте CZ-6A DEB в реальном времени с AllMySat

Download on the App Store